Location: Solon
(41.3849°N, 81.4081°W)
Time: 21:34:47
(UTC-05:00)

Daily predictions for brighter satellites

Satellite Brightness Start Highest point End
(mag) Time Altitude Azimuth Time Altitude Azimuth Time Altitude Azimuth
CENTAUR R/B 3.5 18:25:04 10° NW 18:32:57 73° WSW 18:41:17 10° SSE
Cosmos 44 3.0 18:29:07 10° NNW 18:33:34 76° ENE 18:37:52 10° SE
Meteor 1-25 Rocket 4.3 18:29:11 10° S 18:34:38 58° E 18:40:12 10° NNE
Cosmos 1346 Rocket 3.4 18:31:51 10° NNW 18:35:46 63° W 18:39:36 10° S
H-2A R/B 4.5 18:37:37 10° E 18:39:26 13° ENE 18:41:15 10° NE
Cosmos 1745 Rocket 4.0 18:34:15 10° S 18:40:34 80° E 18:46:52 10° N
Cosmos 2151 Rocket 4.0 18:38:44 10° SSE 18:42:58 42° E 18:47:14 10° NNE
Cosmos 1812 2.7 18:41:54 10° N 18:45:45 66° E 18:49:34 10° SSE
NOAA 12 4.1 18:43:42 10° SSE 18:48:57 65° ENE 18:54:15 10° N
Okean 1 Rocket 4.4 18:46:48 10° SE 18:49:56 19° E 18:53:05 10° NE
Cosmos 1386 Rocket 4.4 18:44:46 10° S 18:50:52 73° E 18:56:54 10° N
METEOR-M 4.1 18:47:00 10° SSE 18:52:18 68° ENE 18:57:37 10° N
GEOS 3 Rocket 4.0 18:49:26 10° NE 18:54:26 44° ESE 18:59:28 10° SSW
HJ-1C 4.3 18:54:13 10° SE 18:57:10 29° ENE 19:00:09 10° N
Cosmos 2360 Rocket 2.7 18:53:15 10° N 18:58:29 37° ENE 19:03:42 10° SE
Cosmos 1980 Rocket 4.3 18:54:08 10° NW 18:59:06 32° WSW 19:04:03 10° SSW
Cosmos 2219 Rocket 4.0 18:58:41 10° NNE 19:00:50 12° NE 19:02:23 11° ENE
Helios 1B rocket 4.1 19:07:49 15° ESE 19:07:49 15° ESE 19:09:31 10° SE
Cosmos 1602 4.1 19:08:00 10° SSE 19:11:39 41° E 19:15:20 10° NNE
Cosmos 1633 2.8 19:08:36 10° SSE 19:12:07 44° E 19:15:39 10° NNE
FREGAT/IRIS 2.8 19:14:14 10° S 19:17:18 76° W 19:20:24 10° NNW
Cosmos 1025 Rocket 4.2 19:14:56 10° NNE 19:18:19 22° ENE 19:18:31 22° ENE
ALOS 2.2 19:15:19 10° SSE 19:19:56 66° ENE 19:24:35 10° N
Cosmos 1833 4.2 19:15:36 10° S 19:21:12 61° ESE 19:26:47 10° NNE
Cosmos 1536 Rocket 3.7 19:20:44 10° N 19:25:13 82° W 19:29:41 10° S
Cosmos 2333 Rocket 3.8 19:23:05 10° N 19:26:31 16° NE 19:27:00 16° NE
Cosmos 1818 3.7 19:23:05 10° SW 19:28:33 80° NW 19:34:02 10° NNE
SL-16 R/B 3.2 19:26:58 10° NW 19:32:24 48° WSW 19:37:48 10° S
SJ-6B 3.6 19:29:35 10° S 19:33:33 54° W 19:37:27 10° NNW
Cosmos 1741 Rocket 4.4 19:28:57 10° SSE 19:33:45 38° ESE 19:37:55 13° NE
FengYun 1-2 T 4.1 19:30:09 10° SSE 19:35:37 87° ENE 19:41:10 10° NNW
TSX-5 3.4 19:33:47 10° SSW 19:36:57 70° WNW 19:39:05 19° NNE
Cosmos 1023 Rocket 4.3 19:32:15 10° S 19:37:18 70° ESE 19:42:25 10° NNE
Resurs 01 Rocket 1.5 19:34:59 10° SSE 19:39:24 81° ENE 19:43:50 10° N
Cosmos 1340 3.0 19:37:32 10° NNW 19:41:19 67° W 19:45:04 10° S
Meteor 1-19 Rocket 4.2 19:36:51 10° N 19:42:33 83° E 19:48:18 10° S
Cosmos 1238 Rocket 2.2 19:39:43 10° NNW 19:42:45 72° W 19:45:29 11° S
Gbstr 26 Del rocket 2.8 19:40:07 10° SSW 19:43:46 47° SE 19:43:57 46° SE
Cosmos 676 Rocket 4.4 19:38:51 10° SSW 19:43:58 63° WNW 19:49:10 10° NNE
DELTA 2 R/B (1) 3.9 19:40:34 10° W 19:46:06 60° SSW 19:48:39 31° SE
Cosmos 1570 Rocket 4.1 19:41:47 10° N 19:46:53 51° ENE 19:48:44 35° ESE
Cosmos 2181 Rocket 4.1 19:41:53 10° N 19:48:08 81° W 19:54:27 10° S
Cosmos 2322 Rocket 3.9 19:45:14 10° NW 19:50:11 33° WSW 19:55:07 10° SSW
Tiangong 2 2.4 19:51:44 10° W 19:54:29 30° SSW 19:54:33 30° SSW
Cosmos 1300 Rocket 4.1 19:52:12 10° SSW 19:56:32 60° W 20:00:57 10° N
Genesis I 4.0 19:53:52 10° NNW 19:56:54 38° NNE 19:56:54 38° NNE
Cosmos 1536 2.7 19:54:52 10° S 19:58:51 88° ESE 20:02:52 10° N
Resurs 1-3 3.8 19:57:45 10° S 20:02:07 68° WSW 20:06:30 10° NNW
Cosmos 2322 3.8 19:57:28 10° NNW 20:03:12 78° WSW 20:07:31 18° SSE
CZ-2D R/B 3.2 20:03:05 49° S 20:04:01 78° WSW 20:07:51 10° NNW
Cosmos 2074 Rocket 3.9 20:00:43 10° S 20:06:56 77° E 20:13:13 10° N
Cosmos 1140 Rocket 3.8 20:01:52 10° SSW 20:06:57 64° WNW 20:12:06 10° NNE
Cosmos 2184 Rocket 3.9 20:01:21 10° S 20:07:39 75° E 20:13:54 10° N
Meteor 1-23 Rocket 4.1 20:03:06 10° N 20:08:57 81° E 20:12:58 21° SSE
Cosmos 2208 Rocket 3.9 20:05:44 10° NNW 20:11:13 78° ENE 20:12:31 53° SE
H-2A R/B 3.9 20:10:07 12° SSW 20:13:20 41° W 20:16:54 10° NNW
Spot 2 Rocket 4.4 20:10:39 10° S 20:15:31 48° W 20:20:26 10° NNW
COSMOS 2428 2.6 20:10:35 10° NNW 20:16:17 72° ENE 20:16:58 64° ESE
Meteor 2-4 Rocket 3.8 20:11:06 10° NNW 20:16:40 70° W 20:22:02 10° S
Cosmos 2237 4.1 20:11:04 10° NNW 20:16:50 90° WSW 20:18:32 48° SSE
Cosmos 614 Rocket 4.2 20:14:16 10° SSW 20:19:19 65° WNW 20:24:23 10° NNE
Cosmos 2333 4.1 20:14:05 10° NNW 20:19:48 67° ENE 20:20:01 66° ENE
Helios 1A 3.3 20:21:29 61° WSW 20:21:45 63° WSW 20:25:53 10° NNW
Cosmos 1850 Rocket 4.2 20:20:29 10° SSW 20:25:44 70° WNW 20:31:03 10° NNE
Cosmos 2237 Rocket 3.6 20:20:48 10° N 20:23:52 25° NNE 20:23:52 25° NNE
Nadezhda 3 Rocket 4.4 20:22:35 10° N 20:27:16 46° NE 20:27:16 46° NE
USA 229 DEB 3.7 20:24:20 10° NNW 20:31:28 68° NE 20:32:15 63° E
USA 229 3.7 20:24:26 10° NNW 20:31:33 67° NE 20:32:19 63° E
Envisat 3.5 20:33:04 48° N 20:33:04 48° N 20:36:45 10° N
Cosmos 2285 Rocket 3.9 20:27:38 10° NNW 20:34:07 80° ENE 20:34:38 74° ESE
Cosmos 2219 3.3 20:33:48 10° SSW 20:39:33 73° WNW 20:41:02 50° N
Helios 1B rocket 4.3 20:44:11 26° WSW 20:44:11 26° WSW 20:46:15 10° SW
Cosmos 2360 Rocket 3.8 20:37:24 10° NW 20:42:22 32° WSW 20:47:02 11° SSW
Cosmos 2219 Rocket 2.9 20:40:16 10° NNW 20:44:09 44° N 20:44:09 44° N
SL-16 R/B 4.4 20:53:02 10° N 20:54:14 15° N 20:54:14 15° N
NOSS 3-1 (C) 4.4 20:57:34 10° NNW 21:03:46 51° NNE 21:03:46 51° NNE
Cosmos 2333 Rocket 3.5 21:05:50 10° NNW 21:09:02 35° NNW 21:09:02 35° NNW
